Time,TemperatureF,DewpointF,PressureIn,WindDirection,WindDirectionDegrees,WindSpeedMPH,WindSpeedGustMPH,Humidity,HourlyPrecipIn,Conditions,Clouds,dailyrainin,SolarRadiationWatts/m^2,SoftwareType,DateUTC
2013-07-10 00:01:00,72.0,70.0,-100.00,SSE,156,2.0,4.0,94,0.00,,,0.16,0.000000,,2013-07-10 04:01:00,
2013-07-10 00:33:00,74.0,71.0,-100.00,South,180,5.0,13.0,91,0.00,,,0.16,0.000000,,2013-07-10 04:33:00,
2013-07-10 00:43:00,74.0,71.0,-100.00,South,180,5.0,13.0,91,0.00,,,0.16,0.000000,,2013-07-10 04:43:00,
2013-07-10 00:52:00,74.0,71.0,-100.00,South,180,5.0,13.0,91,0.00,,,0.16,0.000000,,2013-07-10 04:52:00,
2013-07-10 01:02:00,74.0,71.0,-100.00,South,180,5.0,13.0,91,0.00,,,0.16,0.000000,,2013-07-10 05:02:00,
2013-07-10 01:32:00,73.0,68.0,-100.00,South,172,4.0,11.0,85,0.00,,,0.16,0.000000,,2013-07-10 05:32:00,
2013-07-10 01:42:00,73.0,68.0,-100.00,South,172,4.0,11.0,85,0.00,,,0.16,0.000000,,2013-07-10 05:42:00,
2013-07-10 01:53:00,73.0,68.0,-100.00,South,172,4.0,11.0,85,0.00,,,0.16,0.000000,,2013-07-10 05:53:00,
2013-07-10 02:01:00,73.0,68.0,-100.00,South,172,4.0,11.0,85,0.00,,,0.16,0.000000,,2013-07-10 06:01:00,
2013-07-10 02:33:00,72.0,68.0,-100.00,South,173,4.0,9.0,86,0.00,,,0.16,0.000000,,2013-07-10 06:33:00,
2013-07-10 02:42:00,72.0,68.0,-100.00,South,173,4.0,9.0,86,0.00,,,0.16,0.000000,,2013-07-10 06:42:00,
2013-07-10 02:52:00,72.0,68.0,-100.00,South,173,4.0,9.0,86,0.00,,,0.16,0.000000,,2013-07-10 06:52:00,
2013-07-10 03:01:00,72.0,68.0,-100.00,South,173,4.0,9.0,86,0.00,,,0.16,0.000000,,2013-07-10 07:01:00,
2013-07-10 03:33:00,72.0,68.0,-100.00,South,179,5.0,11.0,87,0.00,,,0.16,0.000000,,2013-07-10 07:33:00,
2013-07-10 03:43:00,72.0,68.0,-100.00,South,179,5.0,11.0,87,0.00,,,0.16,0.000000,,2013-07-10 07:43:00,
2013-07-10 03:53:00,72.0,68.0,-100.00,South,179,5.0,11.0,87,0.00,,,0.16,0.000000,,2013-07-10 07:53:00,
2013-07-10 04:02:00,72.0,68.0,-100.00,South,179,5.0,11.0,87,0.00,,,0.16,0.000000,,2013-07-10 08:02:00,
2013-07-10 04:33:00,72.0,68.0,-100.00,South,176,5.0,9.0,87,0.00,,,0.16,0.000000,,2013-07-10 08:33:00,
2013-07-10 04:42:00,72.0,68.0,-100.00,South,176,5.0,9.0,87,0.00,,,0.16,0.000000,,2013-07-10 08:42:00,
2013-07-10 04:53:00,72.0,68.0,-100.00,South,176,5.0,9.0,87,0.00,,,0.16,0.000000,,2013-07-10 08:53:00,
2013-07-10 05:02:00,72.0,68.0,-100.00,South,176,5.0,9.0,87,0.00,,,0.16,0.000000,,2013-07-10 09:02:00,
2013-07-10 05:33:00,71.0,67.0,-100.00,South,180,5.0,12.0,88,0.00,,,0.16,0.000000,,2013-07-10 09:33:00,
2013-07-10 05:43:00,71.0,67.0,-100.00,South,180,5.0,12.0,88,0.00,,,0.16,0.000000,,2013-07-10 09:43:00,
2013-07-10 05:53:00,71.0,67.0,-100.00,South,180,5.0,12.0,88,0.00,,,0.16,0.000000,,2013-07-10 09:53:00,
2013-07-10 06:01:00,71.0,67.0,-100.00,South,180,5.0,12.0,88,0.00,,,0.16,0.000000,,2013-07-10 10:01:00,
2013-07-10 06:32:00,70.0,68.0,-100.00,South,170,3.0,9.0,95,0.04,,,0.18,0.000000,,2013-07-10 10:32:00,
2013-07-10 06:51:00,-999.0,-99.9,-100.00,South,170,3.0,9.0,-999,-99.99,,,-99.99,0.000000,,2013-07-10 10:51:00,
2013-07-10 07:00:00,-999.0,-99.9,-100.00,South,170,3.0,9.0,-999,-99.99,,,-99.99,0.000000,,2013-07-10 11:00:00,
2013-07-10 09:52:00,70.0,68.0,-100.00,South,182,3.0,8.0,94,-99.99,,,0.26,49.000000,,2013-07-10 13:52:00,
2013-07-10 10:02:00,70.0,68.0,-100.00,South,182,3.0,8.0,94,-99.99,,,0.26,49.000000,,2013-07-10 14:02:00,
2013-07-10 10:33:00,72.0,68.0,-100.00,South,181,5.0,13.0,88,0.00,,,0.26,202.000000,,2013-07-10 14:33:00,
2013-07-10 10:44:00,72.0,68.0,-100.00,South,181,5.0,13.0,88,0.00,,,0.26,202.000000,,2013-07-10 14:44:00,
2013-07-10 10:53:00,72.0,68.0,-100.00,South,181,5.0,13.0,88,0.00,,,0.26,202.000000,,2013-07-10 14:53:00,
2013-07-10 11:01:00,72.0,68.0,-100.00,South,181,5.0,13.0,88,0.00,,,0.26,202.000000,,2013-07-10 15:01:00,
2013-07-10 11:34:00,75.0,69.0,-100.00,South,181,4.0,11.0,83,0.00,,,0.26,272.000000,,2013-07-10 15:34:00,
2013-07-10 11:43:00,75.0,69.0,-100.00,South,181,4.0,11.0,83,0.00,,,0.26,272.000000,,2013-07-10 15:43:00,
2013-07-10 11:52:00,75.0,69.0,-100.00,South,181,4.0,11.0,83,0.00,,,0.26,272.000000,,2013-07-10 15:52:00,
2013-07-10 12:02:00,75.0,69.0,-100.00,South,181,4.0,11.0,83,0.00,,,0.26,272.000000,,2013-07-10 16:02:00,
2013-07-10 12:44:00,76.0,69.0,-100.00,SSW,193,4.0,14.0,79,0.00,,,0.26,521.000000,,2013-07-10 16:44:00,
2013-07-10 12:53:00,76.0,69.0,-100.00,SSW,193,4.0,14.0,79,0.00,,,0.26,521.000000,,2013-07-10 16:53:00,
2013-07-10 13:02:00,76.0,69.0,-100.00,SSW,193,4.0,14.0,79,0.00,,,0.26,521.000000,,2013-07-10 17:02:00,
2013-07-10 13:43:00,77.0,70.0,-100.00,South,176,4.0,11.0,79,0.00,,,0.26,283.000000,,2013-07-10 17:43:00,
2013-07-10 13:53:00,77.0,70.0,-100.00,South,176,4.0,11.0,79,0.00,,,0.26,283.000000,,2013-07-10 17:53:00,
2013-07-10 14:02:00,77.0,70.0,-100.00,South,176,4.0,11.0,79,0.00,,,0.26,283.000000,,2013-07-10 18:02:00,
2013-07-10 14:32:00,80.0,71.0,-100.00,South,187,6.0,13.0,75,0.00,,,0.26,510.000000,,2013-07-10 18:32:00,
2013-07-10 14:44:00,80.0,71.0,-100.00,South,187,6.0,13.0,75,0.00,,,0.26,510.000000,,2013-07-10 18:44:00,
2013-07-10 14:53:00,80.0,71.0,-100.00,South,187,6.0,13.0,75,0.00,,,0.26,510.000000,,2013-07-10 18:53:00,
2013-07-10 15:01:00,80.0,71.0,-100.00,South,187,6.0,13.0,75,0.00,,,0.26,510.000000,,2013-07-10 19:01:00,
2013-07-10 15:32:00,83.0,72.0,-100.00,South,185,5.0,12.0,69,0.00,,,0.26,627.000000,,2013-07-10 19:32:00,
2013-07-10 15:42:00,83.0,72.0,-100.00,South,185,5.0,12.0,69,0.00,,,0.26,627.000000,,2013-07-10 19:42:00,
2013-07-10 15:53:00,83.0,72.0,-100.00,South,185,5.0,12.0,69,0.00,,,0.26,627.000000,,2013-07-10 19:53:00,
2013-07-10 16:02:00,83.0,72.0,-100.00,South,185,5.0,12.0,69,0.00,,,0.26,627.000000,,2013-07-10 20:02:00,
2013-07-10 16:32:00,82.0,72.0,-100.00,South,188,5.0,11.0,72,0.00,,,0.26,672.000000,,2013-07-10 20:32:00,
2013-07-10 16:43:00,82.0,72.0,-100.00,South,188,5.0,11.0,72,0.00,,,0.26,672.000000,,2013-07-10 20:43:00,
2013-07-10 16:52:00,82.0,72.0,-100.00,South,188,5.0,11.0,72,0.00,,,0.26,672.000000,,2013-07-10 20:52:00,
2013-07-10 17:01:00,82.0,72.0,-100.00,South,188,5.0,11.0,72,0.00,,,0.26,672.000000,,2013-07-10 21:01:00,
2013-07-10 17:32:00,77.0,71.0,-100.00,SSE,167,4.0,10.0,82,0.00,,,0.26,154.000000,,2013-07-10 21:32:00,
2013-07-10 17:42:00,77.0,71.0,-100.00,SSE,167,4.0,10.0,82,0.00,,,0.26,154.000000,,2013-07-10 21:42:00,
2013-07-10 17:52:00,77.0,71.0,-100.00,SSE,167,4.0,10.0,82,0.00,,,0.26,154.000000,,2013-07-10 21:52:00,
2013-07-10 18:01:00,77.0,71.0,-100.00,SSE,167,4.0,10.0,82,0.00,,,0.26,154.000000,,2013-07-10 22:01:00,
2013-07-10 19:32:00,66.0,64.0,-100.00,SSE,151,5.0,11.0,94,-99.99,,,0.51,11.000000,,2013-07-10 23:32:00,
2013-07-10 19:43:00,66.0,64.0,-100.00,SSE,151,5.0,11.0,94,-99.99,,,0.51,11.000000,,2013-07-10 23:43:00,
2013-07-10 19:52:00,66.0,64.0,-100.00,SSE,151,5.0,11.0,94,-99.99,,,0.51,11.000000,,2013-07-10 23:52:00,
2013-07-10 20:01:00,66.0,64.0,-100.00,SSE,151,5.0,11.0,94,-99.99,,,0.51,11.000000,,2013-07-11 00:01:00,
2013-07-10 20:32:00,65.0,64.0,-100.00,South,183,1.0,12.0,97,0.06,,,0.57,7.000000,,2013-07-11 00:32:00,
2013-07-10 20:43:00,65.0,64.0,-100.00,South,183,1.0,12.0,97,0.06,,,0.57,7.000000,,2013-07-11 00:43:00,
2013-07-10 20:52:00,65.0,64.0,-100.00,South,183,1.0,12.0,97,0.06,,,0.57,7.000000,,2013-07-11 00:52:00,
2013-07-10 21:01:00,65.0,64.0,-100.00,South,183,1.0,12.0,97,0.06,,,0.57,7.000000,,2013-07-11 01:01:00,
2013-07-10 21:32:00,64.0,63.0,-100.00,SE,127,2.0,7.0,98,0.01,,,0.58,7.000000,,2013-07-11 01:32:00,
2013-07-10 21:43:00,64.0,63.0,-100.00,SE,127,2.0,7.0,98,0.01,,,0.58,7.000000,,2013-07-11 01:43:00,
2013-07-10 21:52:00,64.0,63.0,-100.00,SE,127,2.0,7.0,98,0.01,,,0.58,7.000000,,2013-07-11 01:52:00,
2013-07-10 22:02:00,64.0,63.0,-100.00,SE,127,2.0,7.0,98,0.01,,,0.58,7.000000,,2013-07-11 02:02:00,
2013-07-10 22:32:00,64.0,63.0,-100.00,West,272,0.0,4.0,98,0.00,,,0.58,0.000000,,2013-07-11 02:32:00,
2013-07-10 22:44:00,64.0,63.0,-100.00,West,272,0.0,4.0,98,0.00,,,0.58,0.000000,,2013-07-11 02:44:00,
2013-07-10 22:53:00,64.0,63.0,-100.00,West,272,0.0,4.0,98,0.00,,,0.58,0.000000,,2013-07-11 02:53:00,
2013-07-10 23:02:00,64.0,63.0,-100.00,West,272,0.0,4.0,98,0.00,,,0.58,0.000000,,2013-07-11 03:02:00,
2013-07-10 23:42:00,64.0,63.0,-100.00,West,264,0.0,3.0,98,0.00,,,0.58,0.000000,,2013-07-11 03:42:00,
2013-07-10 23:53:00,64.0,63.0,-100.00,West,264,0.0,3.0,98,0.00,,,0.58,0.000000,,2013-07-11 03:53:00,